Date,TemperatureHighF,TemperatureAvgF,TemperatureLowF,DewpointHighF,DewpointAvgF,DewpointLowF,HumidityHigh,HumidityAvg,HumidityLow,PressureMaxIn,PressureMinIn,WindSpeedMaxMPH,WindSpeedAvgMPH,GustSpeedMaxMPH,PrecipitationSumIn
2013-3-1,38,35,32,29,26,24,78,72,66,29.75,29.69,12,6,18,0.00
2013-3-2,38,34,29,28,25,18,79,71,62,29.78,29.67,12,7,19,0.00
2013-3-3,35,30,25,21,17,15,68,59,49,29.83,29.74,14,7,22,0.00
2013-3-4,57,42,26,30,22,13,62,47,31,29.93,29.79,11,4,17,0.00
2013-3-5,54,44,35,51,38,26,97,80,58,29.84,29.43,18,3,26,0.36
2013-3-6,35,32,28,27,24,17,80,73,59,29.95,29.60,22,10,29,0.00
2013-3-7,57,40,24,34,27,22,90,64,37,30.01,29.91,9,2,13,0.00
2013-3-8,62,45,27,31,23,18,78,47,18,30.09,29.95,9,2,10,0.00
2013-3-9,60,48,34,34,28,21,65,46,32,30.10,29.98,5,1,7,0.00
2013-3-10,65,54,44,38,34,30,61,48,32,30.01,29.86,6,2,12,0.00
2013-3-11,57,53,50,53,49,39,98,86,61,29.87,29.56,10,2,13,1.16
2013-3-12,58,48,36,52,36,27,98,67,32,29.84,29.54,14,5,17,0.03
2013-3-13,48,42,32,30,24,18,64,50,37,30.00,29.82,15,8,21,0.00
2013-3-14,52,38,24,26,16,11,67,45,21,30.12,29.98,13,6,17,0.00
2013-3-15,69,53,34,43,36,24,82,54,37,29.99,29.72,17,6,28,0.00
2013-3-16,72,62,52,48,43,40,65,51,37,29.72,29.59,17,7,25,0.00
2013-3-17,69,61,51,53,47,41,77,59,48,29.72,29.64,12,6,15,0.00
2013-3-18,56,47,43,50,44,42,98,91,71,29.78,29.59,8,2,11,0.43
2013-3-19,58,49,42,48,32,15,98,56,29,29.85,29.66,18,6,19,0.01
2013-3-20,56,45,38,28,18,12,68,34,20,29.90,29.64,16,5,20,0.00
2013-3-21,41,34,26,27,13,6,66,43,29,29.75,29.63,14,8,22,0.00
2013-3-22,50,39,29,31,22,12,65,50,39,29.83,29.74,8,2,12,0.00
2013-3-23,53,45,39,49,42,31,97,88,62,29.80,29.59,5,1,10,0.33
2013-3-24,49,45,40,46,44,32,97,94,75,29.61,29.29,14,4,17,1.32
2013-3-25,39,34,30,32,25,21,76,69,61,29.80,29.41,15,10,25,0.00
2013-3-26,38,33,29,26,24,21,78,68,58,30.03,29.76,12,7,20,0.00
2013-3-27,50,39,30,27,22,19,72,53,34,30.09,29.99,14,7,21,0.00
2013-3-28,57,44,32,30,23,15,63,45,25,30.08,29.98,15,5,20,0.00
2013-3-29,61,46,31,36,29,22,76,53,33,30.12,29.96,7,1,14,0.00
2013-3-30,67,53,43,52,41,35,97,65,37,29.97,29.77,13,2,21,0.28
2013-3-31,63,56,52,57,54,52,98,91,73,29.78,29.61,11,4,24,0.73